Terminal Aerodrome Forecast
Issued by NWS Sioux Falls, SD

Home | Current Version | Previous Version | Text Only | Print | Product List | Glossary On
Versions: 1 2 3 4 5 6 7 8 9 10 11 12 13 14 15 16 17 18 19 20 21 22 23 24 25 26 27 28 29 30 31 32 33 34 35 36 37
000
FTUS43 KFSD 121700
TAFSUX
TAF
KSUX 121728Z 1218/1318 36007KT P6SM -SHRA SCT012 BKN025 OVC100
     FM122100 03012KT P6SM -SHRA BKN035
     FM130300 35006KT P6SM SCT200
     FM130600 33006KT 3SM BR SKC
     FM131300 32008KT P6SM SCT050=

USA.gov is the U.S. government's official web portal to all federal, state and local government web resources and services.